<?xml version="1.0" encoding="UTF-8" standalone="no" ?>
<gpx xmlns="http://www.topografix.com/GPX/1/1" xmlns:xsi="http://www.w3.org/2001/XMLSchema-instance" xsi:schemaLocation="http://www.topografix.com/GPX/1/1 http://www.topografix.com/GPX/1/1/gpx.xsd" version="1.1" creator="VisuGPX - https://www.visugpx.com">
  <metadata>
    <name>Col de Perty - Chamouse - La Tussie</name>
    <desc><![CDATA[grp_trc:]]></desc>
  </metadata>
  <trk>
    <name><![CDATA[Col de Perty - La Tussie]]></name>
    <cmt><![CDATA[23:00:35]]></cmt>
    <desc><![CDATA[comment ...]]></desc>
    <trkseg>
      <trkpt lat="44.29239" lon="5.59596">
        <ele>826</ele>
        <time>2022-08-13T21:00:35Z</time>
      </trkpt>
      <trkpt lat="44.29239" lon="5.59596">
        <ele>826</ele>
        <time>2022-08-13T21:00:35Z</time>
      </trkpt>
      <trkpt lat="44.2924" lon="5.59585">
        <ele>827</ele>
        <time>2022-08-13T21:00:35Z</time>
      </trkpt>
      <trkpt lat="44.2923" lon="5.59581">
        <ele>827</ele>
        <time>2022-08-13T21:00:35Z</time>
      </trkpt>
      <trkpt lat="44.29223" lon="5.59555">
        <ele>828</ele>
        <time>2022-08-13T21:00:35Z</time>
      </trkpt>
      <trkpt lat="44.29223" lon="5.59555">
        <ele>829</ele>
        <time>2022-08-13T21:00:35Z</time>
      </trkpt>
      <trkpt lat="44.29223" lon="5.59555">
        <ele>829</ele>
        <time>2022-08-13T21:00:35Z</time>
      </trkpt>
      <trkpt lat="44.29222" lon="5.59519">
        <ele>830</ele>
        <time>2022-08-13T21:00:35Z</time>
      </trkpt>
      <trkpt lat="44.29225" lon="5.59521">
        <ele>831</ele>
        <time>2022-08-13T21:00:35Z</time>
      </trkpt>
      <trkpt lat="44.29231" lon="5.59536">
        <ele>831</ele>
        <time>2022-08-13T21:00:35Z</time>
      </trkpt>
      <trkpt lat="44.2924" lon="5.59529">
        <ele>831</ele>
        <time>2022-08-13T21:00:35Z</time>
      </trkpt>
      <trkpt lat="44.2924" lon="5.59529">
        <ele>834</ele>
        <time>2022-08-13T21:00:35Z</time>
      </trkpt>
      <trkpt lat="44.29247" lon="5.59525">
        <ele>834</ele>
        <time>2022-08-13T21:00:35Z</time>
      </trkpt>
      <trkpt lat="44.29252" lon="5.59535">
        <ele>834</ele>
        <time>2022-08-13T21:00:35Z</time>
      </trkpt>
      <trkpt lat="44.29259" lon="5.59532">
        <ele>834</ele>
        <time>2022-08-13T21:00:35Z</time>
      </trkpt>
      <trkpt lat="44.29263" lon="5.59511">
        <ele>835</ele>
        <time>2022-08-13T21:00:35Z</time>
      </trkpt>
      <trkpt lat="44.29279" lon="5.59507">
        <ele>835</ele>
        <time>2022-08-13T21:00:35Z</time>
      </trkpt>
      <trkpt lat="44.29295" lon="5.59496">
        <ele>835</ele>
        <time>2022-08-13T21:00:35Z</time>
      </trkpt>
      <trkpt lat="44.29295" lon="5.59419">
        <ele>838</ele>
        <time>2022-08-13T21:00:35Z</time>
      </trkpt>
      <trkpt lat="44.293" lon="5.59388">
        <ele>841</ele>
        <time>2022-08-13T21:00:35Z</time>
      </trkpt>
      <trkpt lat="44.29304" lon="5.59364">
        <ele>844</ele>
        <time>2022-08-13T21:00:35Z</time>
      </trkpt>
      <trkpt lat="44.2931" lon="5.59339">
        <ele>848</ele>
        <time>2022-08-13T21:00:35Z</time>
      </trkpt>
      <trkpt lat="44.29321" lon="5.59288">
        <ele>854</ele>
        <time>2022-08-13T21:00:35Z</time>
      </trkpt>
      <trkpt lat="44.29344" lon="5.59246">
        <ele>860</ele>
        <time>2022-08-13T21:00:35Z</time>
      </trkpt>
      <trkpt lat="44.29388" lon="5.59115">
        <ele>873</ele>
        <time>2022-08-13T21:00:35Z</time>
      </trkpt>
      <trkpt lat="44.29388" lon="5.59115">
        <ele>907</ele>
        <time>2022-08-13T21:00:35Z</time>
      </trkpt>
      <trkpt lat="44.29388" lon="5.59102">
        <ele>907</ele>
        <time>2022-08-13T21:00:35Z</time>
      </trkpt>
      <trkpt lat="44.29432" lon="5.59055">
        <ele>908</ele>
        <time>2022-08-13T21:00:35Z</time>
      </trkpt>
      <trkpt lat="44.29441" lon="5.59012">
        <ele>911</ele>
        <time>2022-08-13T21:00:35Z</time>
      </trkpt>
      <trkpt lat="44.2943" lon="5.58896">
        <ele>917</ele>
        <time>2022-08-13T21:00:35Z</time>
      </trkpt>
      <trkpt lat="44.29426" lon="5.58881">
        <ele>921</ele>
        <time>2022-08-13T21:00:35Z</time>
      </trkpt>
      <trkpt lat="44.29422" lon="5.58844">
        <ele>926</ele>
        <time>2022-08-13T21:00:35Z</time>
      </trkpt>
      <trkpt lat="44.29414" lon="5.58841">
        <ele>930</ele>
        <time>2022-08-13T21:00:35Z</time>
      </trkpt>
      <trkpt lat="44.29407" lon="5.58832">
        <ele>933</ele>
        <time>2022-08-13T21:00:35Z</time>
      </trkpt>
      <trkpt lat="44.29391" lon="5.58798">
        <ele>936</ele>
        <time>2022-08-13T21:00:35Z</time>
      </trkpt>
      <trkpt lat="44.29326" lon="5.58704">
        <ele>942</ele>
        <time>2022-08-13T21:00:35Z</time>
      </trkpt>
      <trkpt lat="44.29326" lon="5.58704">
        <ele>960</ele>
        <time>2022-08-13T21:00:35Z</time>
      </trkpt>
      <trkpt lat="44.29306" lon="5.58654">
        <ele>961</ele>
        <time>2022-08-13T21:00:35Z</time>
      </trkpt>
      <trkpt lat="44.29296" lon="5.58587">
        <ele>963</ele>
        <time>2022-08-13T21:00:35Z</time>
      </trkpt>
      <trkpt lat="44.29296" lon="5.58452">
        <ele>965</ele>
        <time>2022-08-13T21:00:35Z</time>
      </trkpt>
      <trkpt lat="44.29283" lon="5.58412">
        <ele>967</ele>
        <time>2022-08-13T21:00:35Z</time>
      </trkpt>
      <trkpt lat="44.29283" lon="5.5839">
        <ele>968</ele>
        <time>2022-08-13T21:00:35Z</time>
      </trkpt>
      <trkpt lat="44.29299" lon="5.58248">
        <ele>971</ele>
        <time>2022-08-13T21:00:35Z</time>
      </trkpt>
      <trkpt lat="44.29294" lon="5.58223">
        <ele>973</ele>
        <time>2022-08-13T21:00:35Z</time>
      </trkpt>
      <trkpt lat="44.29254" lon="5.58126">
        <ele>976</ele>
        <time>2022-08-13T21:00:35Z</time>
      </trkpt>
      <trkpt lat="44.29254" lon="5.58126">
        <ele>986</ele>
        <time>2022-08-13T21:00:35Z</time>
      </trkpt>
      <trkpt lat="44.29245" lon="5.58108">
        <ele>986</ele>
        <time>2022-08-13T21:00:35Z</time>
      </trkpt>
      <trkpt lat="44.29218" lon="5.58021">
        <ele>987</ele>
        <time>2022-08-13T21:00:35Z</time>
      </trkpt>
      <trkpt lat="44.29206" lon="5.5792">
        <ele>990</ele>
        <time>2022-08-13T21:00:35Z</time>
      </trkpt>
      <trkpt lat="44.29195" lon="5.579">
        <ele>992</ele>
        <time>2022-08-13T21:00:35Z</time>
      </trkpt>
      <trkpt lat="44.29131" lon="5.57847">
        <ele>995</ele>
        <time>2022-08-13T21:00:35Z</time>
      </trkpt>
      <trkpt lat="44.29108" lon="5.57838">
        <ele>998</ele>
        <time>2022-08-13T21:00:35Z</time>
      </trkpt>
      <trkpt lat="44.2911" lon="5.57822">
        <ele>1000</ele>
        <time>2022-08-13T21:00:35Z</time>
      </trkpt>
      <trkpt lat="44.29107" lon="5.57812">
        <ele>1002</ele>
        <time>2022-08-13T21:00:35Z</time>
      </trkpt>
      <trkpt lat="44.2908" lon="5.57788">
        <ele>1005</ele>
        <time>2022-08-13T21:00:35Z</time>
      </trkpt>
      <trkpt lat="44.29081" lon="5.5776">
        <ele>1009</ele>
        <time>2022-08-13T21:00:35Z</time>
      </trkpt>
      <trkpt lat="44.29089" lon="5.57752">
        <ele>1012</ele>
        <time>2022-08-13T21:00:35Z</time>
      </trkpt>
      <trkpt lat="44.29094" lon="5.5773">
        <ele>1015</ele>
        <time>2022-08-13T21:00:35Z</time>
      </trkpt>
      <trkpt lat="44.29119" lon="5.5744">
        <ele>1027</ele>
        <time>2022-08-13T21:00:35Z</time>
      </trkpt>
      <trkpt lat="44.29059" lon="5.5709">
        <ele>1055</ele>
        <time>2022-08-13T21:00:35Z</time>
      </trkpt>
      <trkpt lat="44.29059" lon="5.5709">
        <ele>1092</ele>
        <time>2022-08-13T21:00:35Z</time>
      </trkpt>
      <trkpt lat="44.29049" lon="5.57068">
        <ele>1091</ele>
        <time>2022-08-13T21:00:35Z</time>
      </trkpt>
      <trkpt lat="44.29047" lon="5.57027">
        <ele>1092</ele>
        <time>2022-08-13T21:00:35Z</time>
      </trkpt>
      <trkpt lat="44.29042" lon="5.57006">
        <ele>1093</ele>
        <time>2022-08-13T21:00:35Z</time>
      </trkpt>
      <trkpt lat="44.2904" lon="5.56935">
        <ele>1094</ele>
        <time>2022-08-13T21:00:35Z</time>
      </trkpt>
      <trkpt lat="44.29007" lon="5.56771">
        <ele>1100</ele>
        <time>2022-08-13T21:00:35Z</time>
      </trkpt>
      <trkpt lat="44.29014" lon="5.56713">
        <ele>1104</ele>
        <time>2022-08-13T21:00:35Z</time>
      </trkpt>
      <trkpt lat="44.29035" lon="5.56638">
        <ele>1110</ele>
        <time>2022-08-13T21:00:35Z</time>
      </trkpt>
      <trkpt lat="44.29018" lon="5.56581">
        <ele>1117</ele>
        <time>2022-08-13T21:00:35Z</time>
      </trkpt>
      <trkpt lat="44.29017" lon="5.56559">
        <ele>1122</ele>
        <time>2022-08-13T21:00:35Z</time>
      </trkpt>
      <trkpt lat="44.29017" lon="5.56559">
        <ele>1140</ele>
        <time>2022-08-13T21:00:35Z</time>
      </trkpt>
      <trkpt lat="44.29016" lon="5.56534">
        <ele>1140</ele>
        <time>2022-08-13T21:00:35Z</time>
      </trkpt>
      <trkpt lat="44.29035" lon="5.56501">
        <ele>1142</ele>
        <time>2022-08-13T21:00:35Z</time>
      </trkpt>
      <trkpt lat="44.29041" lon="5.56458">
        <ele>1143</ele>
        <time>2022-08-13T21:00:35Z</time>
      </trkpt>
      <trkpt lat="44.29025" lon="5.56347">
        <ele>1144</ele>
        <time>2022-08-13T21:00:35Z</time>
      </trkpt>
      <trkpt lat="44.28974" lon="5.56191">
        <ele>1150</ele>
        <time>2022-08-13T21:00:35Z</time>
      </trkpt>
      <trkpt lat="44.28974" lon="5.5613">
        <ele>1157</ele>
        <time>2022-08-13T21:00:35Z</time>
      </trkpt>
      <trkpt lat="44.28989" lon="5.56076">
        <ele>1164</ele>
        <time>2022-08-13T21:00:35Z</time>
      </trkpt>
      <trkpt lat="44.28989" lon="5.56076">
        <ele>1185</ele>
        <time>2022-08-13T21:00:35Z</time>
      </trkpt>
      <trkpt lat="44.28992" lon="5.56065">
        <ele>1185</ele>
        <time>2022-08-13T21:00:35Z</time>
      </trkpt>
      <trkpt lat="44.2903" lon="5.55992">
        <ele>1187</ele>
        <time>2022-08-13T21:00:35Z</time>
      </trkpt>
      <trkpt lat="44.29031" lon="5.5595">
        <ele>1189</ele>
        <time>2022-08-13T21:00:35Z</time>
      </trkpt>
      <trkpt lat="44.29041" lon="5.55912">
        <ele>1190</ele>
        <time>2022-08-13T21:00:35Z</time>
      </trkpt>
      <trkpt lat="44.29063" lon="5.55861">
        <ele>1191</ele>
        <time>2022-08-13T21:00:35Z</time>
      </trkpt>
      <trkpt lat="44.29134" lon="5.55773">
        <ele>1192</ele>
        <time>2022-08-13T21:00:35Z</time>
      </trkpt>
      <trkpt lat="44.29134" lon="5.55773">
        <ele>1195</ele>
        <time>2022-08-13T21:00:35Z</time>
      </trkpt>
      <trkpt lat="44.29157" lon="5.55662">
        <ele>1195</ele>
        <time>2022-08-13T21:00:35Z</time>
      </trkpt>
      <trkpt lat="44.29185" lon="5.55585">
        <ele>1198</ele>
        <time>2022-08-13T21:00:35Z</time>
      </trkpt>
      <trkpt lat="44.29232" lon="5.55497">
        <ele>1206</ele>
        <time>2022-08-13T21:00:35Z</time>
      </trkpt>
      <trkpt lat="44.2923" lon="5.55414">
        <ele>1213</ele>
        <time>2022-08-13T21:00:35Z</time>
      </trkpt>
      <trkpt lat="44.29238" lon="5.55411">
        <ele>1217</ele>
        <time>2022-08-13T21:00:35Z</time>
      </trkpt>
      <trkpt lat="44.29244" lon="5.55381">
        <ele>1220</ele>
        <time>2022-08-13T21:00:35Z</time>
      </trkpt>
      <trkpt lat="44.29266" lon="5.55182">
        <ele>1228</ele>
        <time>2022-08-13T21:00:35Z</time>
      </trkpt>
      <trkpt lat="44.29266" lon="5.55182">
        <ele>1245</ele>
        <time>2022-08-13T21:00:35Z</time>
      </trkpt>
      <trkpt lat="44.29264" lon="5.55138">
        <ele>1246</ele>
        <time>2022-08-13T21:00:35Z</time>
      </trkpt>
      <trkpt lat="44.29257" lon="5.55082">
        <ele>1248</ele>
        <time>2022-08-13T21:00:35Z</time>
      </trkpt>
      <trkpt lat="44.29257" lon="5.55043">
        <ele>1251</ele>
        <time>2022-08-13T21:00:35Z</time>
      </trkpt>
      <trkpt lat="44.29243" lon="5.54987">
        <ele>1253</ele>
        <time>2022-08-13T21:00:35Z</time>
      </trkpt>
      <trkpt lat="44.29243" lon="5.54972">
        <ele>1255</ele>
        <time>2022-08-13T21:00:35Z</time>
      </trkpt>
      <trkpt lat="44.29241" lon="5.54957">
        <ele>1256</ele>
        <time>2022-08-13T21:00:35Z</time>
      </trkpt>
      <trkpt lat="44.29236" lon="5.54947">
        <ele>1262</ele>
        <time>2022-08-13T21:00:35Z</time>
      </trkpt>
      <trkpt lat="44.29228" lon="5.54939">
        <ele>1262</ele>
        <time>2022-08-13T21:00:35Z</time>
      </trkpt>
      <trkpt lat="44.29218" lon="5.54936">
        <ele>1262</ele>
        <time>2022-08-13T21:00:35Z</time>
      </trkpt>
      <trkpt lat="44.29181" lon="5.54947">
        <ele>1261</ele>
        <time>2022-08-13T21:00:35Z</time>
      </trkpt>
      <trkpt lat="44.29169" lon="5.54944">
        <ele>1261</ele>
        <time>2022-08-13T21:00:35Z</time>
      </trkpt>
      <trkpt lat="44.29132" lon="5.54919">
        <ele>1263</ele>
        <time>2022-08-13T21:00:35Z</time>
      </trkpt>
      <trkpt lat="44.29061" lon="5.54902">
        <ele>1268</ele>
        <time>2022-08-13T21:00:35Z</time>
      </trkpt>
      <trkpt lat="44.29061" lon="5.54902">
        <ele>1284</ele>
        <time>2022-08-13T21:00:35Z</time>
      </trkpt>
      <trkpt lat="44.29042" lon="5.54901">
        <ele>1284</ele>
        <time>2022-08-13T21:00:35Z</time>
      </trkpt>
      <trkpt lat="44.2881" lon="5.54956">
        <ele>1286</ele>
        <time>2022-08-13T21:00:35Z</time>
      </trkpt>
      <trkpt lat="44.28751" lon="5.54985">
        <ele>1288</ele>
        <time>2022-08-13T21:00:35Z</time>
      </trkpt>
      <trkpt lat="44.28738" lon="5.54987">
        <ele>1290</ele>
        <time>2022-08-13T21:00:35Z</time>
      </trkpt>
      <trkpt lat="44.28734" lon="5.54992">
        <ele>1291</ele>
        <time>2022-08-13T21:00:35Z</time>
      </trkpt>
      <trkpt lat="44.28731" lon="5.54998">
        <ele>1292</ele>
        <time>2022-08-13T21:00:35Z</time>
      </trkpt>
      <trkpt lat="44.28727" lon="5.54997">
        <ele>1293</ele>
        <time>2022-08-13T21:00:35Z</time>
      </trkpt>
      <trkpt lat="44.28722" lon="5.54999">
        <ele>1293</ele>
        <time>2022-08-13T21:00:35Z</time>
      </trkpt>
      <trkpt lat="44.28721" lon="5.54992">
        <ele>1294</ele>
        <time>2022-08-13T21:00:35Z</time>
      </trkpt>
      <trkpt lat="44.28717" lon="5.54991">
        <ele>1294</ele>
        <time>2022-08-13T21:00:35Z</time>
      </trkpt>
      <trkpt lat="44.28712" lon="5.54994">
        <ele>1295</ele>
        <time>2022-08-13T21:00:35Z</time>
      </trkpt>
      <trkpt lat="44.28708" lon="5.55">
        <ele>1296</ele>
        <time>2022-08-13T21:00:35Z</time>
      </trkpt>
      <trkpt lat="44.28701" lon="5.55002">
        <ele>1296</ele>
        <time>2022-08-13T21:00:35Z</time>
      </trkpt>
      <trkpt lat="44.28691" lon="5.55005">
        <ele>1297</ele>
        <time>2022-08-13T21:00:35Z</time>
      </trkpt>
      <trkpt lat="44.28678" lon="5.55017">
        <ele>1298</ele>
        <time>2022-08-13T21:00:35Z</time>
      </trkpt>
      <trkpt lat="44.28672" lon="5.55023">
        <ele>1299</ele>
        <time>2022-08-13T21:00:35Z</time>
      </trkpt>
      <trkpt lat="44.28667" lon="5.55025">
        <ele>1300</ele>
        <time>2022-08-13T21:00:35Z</time>
      </trkpt>
      <trkpt lat="44.28663" lon="5.5503">
        <ele>1301</ele>
        <time>2022-08-13T21:00:35Z</time>
      </trkpt>
      <trkpt lat="44.28659" lon="5.5504">
        <ele>1301</ele>
        <time>2022-08-13T21:00:35Z</time>
      </trkpt>
      <trkpt lat="44.2865" lon="5.55051">
        <ele>1302</ele>
        <time>2022-08-13T21:00:35Z</time>
      </trkpt>
      <trkpt lat="44.28646" lon="5.55053">
        <ele>1303</ele>
        <time>2022-08-13T21:00:35Z</time>
      </trkpt>
      <trkpt lat="44.28643" lon="5.55058">
        <ele>1304</ele>
        <time>2022-08-13T21:00:35Z</time>
      </trkpt>
      <trkpt lat="44.28639" lon="5.5506">
        <ele>1304</ele>
        <time>2022-08-13T21:00:35Z</time>
      </trkpt>
      <trkpt lat="44.2863" lon="5.55069">
        <ele>1305</ele>
        <time>2022-08-13T21:00:35Z</time>
      </trkpt>
      <trkpt lat="44.28618" lon="5.55077">
        <ele>1306</ele>
        <time>2022-08-13T21:00:35Z</time>
      </trkpt>
      <trkpt lat="44.28603" lon="5.55075">
        <ele>1307</ele>
        <time>2022-08-13T21:00:35Z</time>
      </trkpt>
      <trkpt lat="44.28601" lon="5.55084">
        <ele>1307</ele>
        <time>2022-08-13T21:00:35Z</time>
      </trkpt>
      <trkpt lat="44.28597" lon="5.55091">
        <ele>1308</ele>
        <time>2022-08-13T21:00:35Z</time>
      </trkpt>
      <trkpt lat="44.2859" lon="5.55093">
        <ele>1309</ele>
        <time>2022-08-13T21:00:35Z</time>
      </trkpt>
      <trkpt lat="44.28582" lon="5.55096">
        <ele>1309</ele>
        <time>2022-08-13T21:00:35Z</time>
      </trkpt>
      <trkpt lat="44.28573" lon="5.55108">
        <ele>1310</ele>
        <time>2022-08-13T21:00:35Z</time>
      </trkpt>
      <trkpt lat="44.28563" lon="5.55111">
        <ele>1311</ele>
        <time>2022-08-13T21:00:35Z</time>
      </trkpt>
      <trkpt lat="44.28553" lon="5.55123">
        <ele>1311</ele>
        <time>2022-08-13T21:00:35Z</time>
      </trkpt>
      <trkpt lat="44.28544" lon="5.55128">
        <ele>1312</ele>
        <time>2022-08-13T21:00:35Z</time>
      </trkpt>
      <trkpt lat="44.28537" lon="5.55134">
        <ele>1312</ele>
        <time>2022-08-13T21:00:35Z</time>
      </trkpt>
      <trkpt lat="44.28535" lon="5.55141">
        <ele>1313</ele>
        <time>2022-08-13T21:00:35Z</time>
      </trkpt>
      <trkpt lat="44.28529" lon="5.55148">
        <ele>1313</ele>
        <time>2022-08-13T21:00:35Z</time>
      </trkpt>
      <trkpt lat="44.2852" lon="5.55157">
        <ele>1313</ele>
        <time>2022-08-13T21:00:35Z</time>
      </trkpt>
      <trkpt lat="44.28516" lon="5.55156">
        <ele>1313</ele>
        <time>2022-08-13T21:00:35Z</time>
      </trkpt>
      <trkpt lat="44.28513" lon="5.55156">
        <ele>1314</ele>
        <time>2022-08-13T21:00:35Z</time>
      </trkpt>
      <trkpt lat="44.28507" lon="5.55165">
        <ele>1314</ele>
        <time>2022-08-13T21:00:35Z</time>
      </trkpt>
      <trkpt lat="44.28496" lon="5.55172">
        <ele>1314</ele>
        <time>2022-08-13T21:00:35Z</time>
      </trkpt>
      <trkpt lat="44.28485" lon="5.55175">
        <ele>1314</ele>
        <time>2022-08-13T21:00:35Z</time>
      </trkpt>
      <trkpt lat="44.28474" lon="5.55176">
        <ele>1314</ele>
        <time>2022-08-13T21:00:35Z</time>
      </trkpt>
      <trkpt lat="44.28466" lon="5.55167">
        <ele>1313</ele>
        <time>2022-08-13T21:00:35Z</time>
      </trkpt>
      <trkpt lat="44.28459" lon="5.55156">
        <ele>1313</ele>
        <time>2022-08-13T21:00:35Z</time>
      </trkpt>
      <trkpt lat="44.28453" lon="5.55147">
        <ele>1313</ele>
        <time>2022-08-13T21:00:35Z</time>
      </trkpt>
      <trkpt lat="44.28436" lon="5.55132">
        <ele>1311</ele>
        <time>2022-08-13T21:00:35Z</time>
      </trkpt>
      <trkpt lat="44.28423" lon="5.55174">
        <ele>1311</ele>
        <time>2022-08-13T21:00:35Z</time>
      </trkpt>
      <trkpt lat="44.28406" lon="5.55217">
        <ele>1310</ele>
        <time>2022-08-13T21:00:35Z</time>
      </trkpt>
      <trkpt lat="44.28387" lon="5.55242">
        <ele>1311</ele>
        <time>2022-08-13T21:00:35Z</time>
      </trkpt>
      <trkpt lat="44.28369" lon="5.55257">
        <ele>1311</ele>
        <time>2022-08-13T21:00:35Z</time>
      </trkpt>
      <trkpt lat="44.28369" lon="5.55257">
        <ele>1314</ele>
        <time>2022-08-13T21:00:35Z</time>
      </trkpt>
      <trkpt lat="44.28274" lon="5.55313">
        <ele>1315</ele>
        <time>2022-08-13T21:00:35Z</time>
      </trkpt>
      <trkpt lat="44.28267" lon="5.55322">
        <ele>1315</ele>
        <time>2022-08-13T21:00:35Z</time>
      </trkpt>
      <trkpt lat="44.28263" lon="5.55333">
        <ele>1315</ele>
        <time>2022-08-13T21:00:35Z</time>
      </trkpt>
      <trkpt lat="44.28259" lon="5.55371">
        <ele>1316</ele>
        <time>2022-08-13T21:00:35Z</time>
      </trkpt>
      <trkpt lat="44.28256" lon="5.55382">
        <ele>1316</ele>
        <time>2022-08-13T21:00:35Z</time>
      </trkpt>
      <trkpt lat="44.2825" lon="5.55395">
        <ele>1315</ele>
        <time>2022-08-13T21:00:35Z</time>
      </trkpt>
      <trkpt lat="44.28244" lon="5.55403">
        <ele>1315</ele>
        <time>2022-08-13T21:00:35Z</time>
      </trkpt>
      <trkpt lat="44.28234" lon="5.55409">
        <ele>1315</ele>
        <time>2022-08-13T21:00:35Z</time>
      </trkpt>
      <trkpt lat="44.28217" lon="5.55413">
        <ele>1315</ele>
        <time>2022-08-13T21:00:35Z</time>
      </trkpt>
      <trkpt lat="44.28192" lon="5.55416">
        <ele>1315</ele>
        <time>2022-08-13T21:00:35Z</time>
      </trkpt>
      <trkpt lat="44.28155" lon="5.55436">
        <ele>1315</ele>
        <time>2022-08-13T21:00:35Z</time>
      </trkpt>
      <trkpt lat="44.28132" lon="5.55457">
        <ele>1317</ele>
        <time>2022-08-13T21:00:35Z</time>
      </trkpt>
      <trkpt lat="44.28122" lon="5.5546">
        <ele>1318</ele>
        <time>2022-08-13T21:00:35Z</time>
      </trkpt>
      <trkpt lat="44.28113" lon="5.55453">
        <ele>1320</ele>
        <time>2022-08-13T21:00:35Z</time>
      </trkpt>
      <trkpt lat="44.28106" lon="5.55439">
        <ele>1321</ele>
        <time>2022-08-13T21:00:35Z</time>
      </trkpt>
      <trkpt lat="44.28097" lon="5.55439">
        <ele>1322</ele>
        <time>2022-08-13T21:00:35Z</time>
      </trkpt>
      <trkpt lat="44.28099" lon="5.55496">
        <ele>1324</ele>
        <time>2022-08-13T21:00:35Z</time>
      </trkpt>
      <trkpt lat="44.28105" lon="5.55526">
        <ele>1324</ele>
        <time>2022-08-13T21:00:35Z</time>
      </trkpt>
      <trkpt lat="44.28098" lon="5.55533">
        <ele>1323</ele>
        <time>2022-08-13T21:00:35Z</time>
      </trkpt>
      <trkpt lat="44.28052" lon="5.55483">
        <ele>1328</ele>
        <time>2022-08-13T21:00:35Z</time>
      </trkpt>
      <trkpt lat="44.28041" lon="5.55465">
        <ele>1331</ele>
        <time>2022-08-13T21:00:35Z</time>
      </trkpt>
      <trkpt lat="44.28032" lon="5.55462">
        <ele>1334</ele>
        <time>2022-08-13T21:00:35Z</time>
      </trkpt>
      <trkpt lat="44.28023" lon="5.55467">
        <ele>1337</ele>
        <time>2022-08-13T21:00:35Z</time>
      </trkpt>
      <trkpt lat="44.28006" lon="5.55487">
        <ele>1339</ele>
        <time>2022-08-13T21:00:35Z</time>
      </trkpt>
      <trkpt lat="44.27996" lon="5.55509">
        <ele>1342</ele>
        <time>2022-08-13T21:00:35Z</time>
      </trkpt>
      <trkpt lat="44.27987" lon="5.55551">
        <ele>1345</ele>
        <time>2022-08-13T21:00:35Z</time>
      </trkpt>
      <trkpt lat="44.27989" lon="5.55578">
        <ele>1347</ele>
        <time>2022-08-13T21:00:35Z</time>
      </trkpt>
      <trkpt lat="44.27984" lon="5.55587">
        <ele>1348</ele>
        <time>2022-08-13T21:00:35Z</time>
      </trkpt>
      <trkpt lat="44.27972" lon="5.55577">
        <ele>1350</ele>
        <time>2022-08-13T21:00:35Z</time>
      </trkpt>
      <trkpt lat="44.2792" lon="5.5549">
        <ele>1355</ele>
        <time>2022-08-13T21:00:35Z</time>
      </trkpt>
      <trkpt lat="44.27912" lon="5.55487">
        <ele>1358</ele>
        <time>2022-08-13T21:00:35Z</time>
      </trkpt>
      <trkpt lat="44.27908" lon="5.55495">
        <ele>1361</ele>
        <time>2022-08-13T21:00:35Z</time>
      </trkpt>
      <trkpt lat="44.27908" lon="5.55553">
        <ele>1366</ele>
        <time>2022-08-13T21:00:35Z</time>
      </trkpt>
      <trkpt lat="44.27904" lon="5.55567">
        <ele>1369</ele>
        <time>2022-08-13T21:00:35Z</time>
      </trkpt>
      <trkpt lat="44.27897" lon="5.5557">
        <ele>1372</ele>
        <time>2022-08-13T21:00:35Z</time>
      </trkpt>
      <trkpt lat="44.27885" lon="5.55561">
        <ele>1375</ele>
        <time>2022-08-13T21:00:35Z</time>
      </trkpt>
      <trkpt lat="44.27866" lon="5.55538">
        <ele>1377</ele>
        <time>2022-08-13T21:00:35Z</time>
      </trkpt>
      <trkpt lat="44.27855" lon="5.55531">
        <ele>1379</ele>
        <time>2022-08-13T21:00:35Z</time>
      </trkpt>
      <trkpt lat="44.27846" lon="5.55534">
        <ele>1380</ele>
        <time>2022-08-13T21:00:35Z</time>
      </trkpt>
      <trkpt lat="44.27846" lon="5.55534">
        <ele>1390</ele>
        <time>2022-08-13T21:00:35Z</time>
      </trkpt>
      <trkpt lat="44.27824" lon="5.5555">
        <ele>1390</ele>
        <time>2022-08-13T21:00:35Z</time>
      </trkpt>
      <trkpt lat="44.27682" lon="5.55709">
        <ele>1401</ele>
        <time>2022-08-13T21:00:35Z</time>
      </trkpt>
      <trkpt lat="44.27674" lon="5.55722">
        <ele>1407</ele>
        <time>2022-08-13T21:00:35Z</time>
      </trkpt>
      <trkpt lat="44.27657" lon="5.5572">
        <ele>1411</ele>
        <time>2022-08-13T21:00:35Z</time>
      </trkpt>
      <trkpt lat="44.27649" lon="5.55724">
        <ele>1413</ele>
        <time>2022-08-13T21:00:35Z</time>
      </trkpt>
      <trkpt lat="44.27649" lon="5.55724">
        <ele>1424</ele>
        <time>2022-08-13T21:00:35Z</time>
      </trkpt>
      <trkpt lat="44.27631" lon="5.55748">
        <ele>1425</ele>
        <time>2022-08-13T21:00:35Z</time>
      </trkpt>
      <trkpt lat="44.27603" lon="5.5575">
        <ele>1425</ele>
        <time>2022-08-13T21:00:35Z</time>
      </trkpt>
      <trkpt lat="44.27595" lon="5.55754">
        <ele>1425</ele>
        <time>2022-08-13T21:00:35Z</time>
      </trkpt>
      <trkpt lat="44.27585" lon="5.55767">
        <ele>1425</ele>
        <time>2022-08-13T21:00:35Z</time>
      </trkpt>
      <trkpt lat="44.27574" lon="5.55775">
        <ele>1425</ele>
        <time>2022-08-13T21:00:35Z</time>
      </trkpt>
      <trkpt lat="44.27558" lon="5.55782">
        <ele>1425</ele>
        <time>2022-08-13T21:00:35Z</time>
      </trkpt>
      <trkpt lat="44.27532" lon="5.5578">
        <ele>1424</ele>
        <time>2022-08-13T21:00:35Z</time>
      </trkpt>
      <trkpt lat="44.27522" lon="5.55784">
        <ele>1424</ele>
        <time>2022-08-13T21:00:35Z</time>
      </trkpt>
      <trkpt lat="44.27511" lon="5.55783">
        <ele>1422</ele>
        <time>2022-08-13T21:00:35Z</time>
      </trkpt>
      <trkpt lat="44.27496" lon="5.55777">
        <ele>1420</ele>
        <time>2022-08-13T21:00:35Z</time>
      </trkpt>
      <trkpt lat="44.27489" lon="5.55769">
        <ele>1418</ele>
        <time>2022-08-13T21:00:35Z</time>
      </trkpt>
      <trkpt lat="44.27417" lon="5.55771">
        <ele>1408</ele>
        <time>2022-08-13T21:00:35Z</time>
      </trkpt>
      <trkpt lat="44.27413" lon="5.55787">
        <ele>1402</ele>
        <time>2022-08-13T21:00:35Z</time>
      </trkpt>
      <trkpt lat="44.27412" lon="5.558">
        <ele>1396</ele>
        <time>2022-08-13T21:00:35Z</time>
      </trkpt>
      <trkpt lat="44.27391" lon="5.55892">
        <ele>1390</ele>
        <time>2022-08-13T21:00:35Z</time>
      </trkpt>
      <trkpt lat="44.27378" lon="5.55914">
        <ele>1386</ele>
        <time>2022-08-13T21:00:35Z</time>
      </trkpt>
      <trkpt lat="44.2737" lon="5.55916">
        <ele>1382</ele>
        <time>2022-08-13T21:00:35Z</time>
      </trkpt>
      <trkpt lat="44.27278" lon="5.56065">
        <ele>1379</ele>
        <time>2022-08-13T21:00:35Z</time>
      </trkpt>
      <trkpt lat="44.26745" lon="5.56723">
        <ele>1408</ele>
        <time>2022-08-13T21:00:35Z</time>
      </trkpt>
      <trkpt lat="44.26745" lon="5.56723">
        <ele>1427</ele>
        <time>2022-08-13T21:00:35Z</time>
      </trkpt>
      <trkpt lat="44.26748" lon="5.56742">
        <ele>1424</ele>
        <time>2022-08-13T21:00:35Z</time>
      </trkpt>
      <trkpt lat="44.26685" lon="5.56923">
        <ele>1414</ele>
        <time>2022-08-13T21:00:35Z</time>
      </trkpt>
      <trkpt lat="44.26684" lon="5.57154">
        <ele>1396</ele>
        <time>2022-08-13T21:00:35Z</time>
      </trkpt>
      <trkpt lat="44.26721" lon="5.57257">
        <ele>1383</ele>
        <time>2022-08-13T21:00:35Z</time>
      </trkpt>
      <trkpt lat="44.26743" lon="5.57205">
        <ele>1372</ele>
        <time>2022-08-13T21:00:35Z</time>
      </trkpt>
      <trkpt lat="44.26751" lon="5.57156">
        <ele>1364</ele>
        <time>2022-08-13T21:00:35Z</time>
      </trkpt>
      <trkpt lat="44.26759" lon="5.57103">
        <ele>1357</ele>
        <time>2022-08-13T21:00:35Z</time>
      </trkpt>
      <trkpt lat="44.26775" lon="5.5709">
        <ele>1351</ele>
        <time>2022-08-13T21:00:35Z</time>
      </trkpt>
      <trkpt lat="44.26808" lon="5.57125">
        <ele>1343</ele>
        <time>2022-08-13T21:00:35Z</time>
      </trkpt>
      <trkpt lat="44.26834" lon="5.57147">
        <ele>1335</ele>
        <time>2022-08-13T21:00:35Z</time>
      </trkpt>
      <trkpt lat="44.26877" lon="5.57142">
        <ele>1325</ele>
        <time>2022-08-13T21:00:35Z</time>
      </trkpt>
      <trkpt lat="44.26923" lon="5.57121">
        <ele>1314</ele>
        <time>2022-08-13T21:00:35Z</time>
      </trkpt>
      <trkpt lat="44.26979" lon="5.57103">
        <ele>1298</ele>
        <time>2022-08-13T21:00:35Z</time>
      </trkpt>
      <trkpt lat="44.26966" lon="5.57082">
        <ele>1289</ele>
        <time>2022-08-13T21:00:35Z</time>
      </trkpt>
      <trkpt lat="44.26983" lon="5.57025">
        <ele>1282</ele>
        <time>2022-08-13T21:00:35Z</time>
      </trkpt>
      <trkpt lat="44.26983" lon="5.57025">
        <ele>1261</ele>
        <time>2022-08-13T21:00:35Z</time>
      </trkpt>
      <trkpt lat="44.26989" lon="5.56991">
        <ele>1262</ele>
        <time>2022-08-13T21:00:35Z</time>
      </trkpt>
      <trkpt lat="44.26978" lon="5.56927">
        <ele>1266</ele>
        <time>2022-08-13T21:00:35Z</time>
      </trkpt>
      <trkpt lat="44.27055" lon="5.56799">
        <ele>1269</ele>
        <time>2022-08-13T21:00:35Z</time>
      </trkpt>
      <trkpt lat="44.27082" lon="5.56787">
        <ele>1271</ele>
        <time>2022-08-13T21:00:35Z</time>
      </trkpt>
      <trkpt lat="44.27106" lon="5.56785">
        <ele>1271</ele>
        <time>2022-08-13T21:00:35Z</time>
      </trkpt>
      <trkpt lat="44.27132" lon="5.56768">
        <ele>1272</ele>
        <time>2022-08-13T21:00:35Z</time>
      </trkpt>
      <trkpt lat="44.27153" lon="5.56763">
        <ele>1273</ele>
        <time>2022-08-13T21:00:35Z</time>
      </trkpt>
      <trkpt lat="44.27328" lon="5.56813">
        <ele>1262</ele>
        <time>2022-08-13T21:00:35Z</time>
      </trkpt>
      <trkpt lat="44.27382" lon="5.56761">
        <ele>1251</ele>
        <time>2022-08-13T21:00:35Z</time>
      </trkpt>
      <trkpt lat="44.27476" lon="5.56734">
        <ele>1230</ele>
        <time>2022-08-13T21:00:35Z</time>
      </trkpt>
      <trkpt lat="44.27512" lon="5.56627">
        <ele>1207</ele>
        <time>2022-08-13T21:00:35Z</time>
      </trkpt>
      <trkpt lat="44.27492" lon="5.56586">
        <ele>1194</ele>
        <time>2022-08-13T21:00:35Z</time>
      </trkpt>
      <trkpt lat="44.27504" lon="5.56547">
        <ele>1186</ele>
        <time>2022-08-13T21:00:35Z</time>
      </trkpt>
      <trkpt lat="44.27513" lon="5.56547">
        <ele>1180</ele>
        <time>2022-08-13T21:00:35Z</time>
      </trkpt>
      <trkpt lat="44.2752" lon="5.56555">
        <ele>1175</ele>
        <time>2022-08-13T21:00:35Z</time>
      </trkpt>
      <trkpt lat="44.2752" lon="5.56555">
        <ele>1155</ele>
        <time>2022-08-13T21:00:35Z</time>
      </trkpt>
      <trkpt lat="44.2753" lon="5.56559">
        <ele>1155</ele>
        <time>2022-08-13T21:00:35Z</time>
      </trkpt>
      <trkpt lat="44.27559" lon="5.56561">
        <ele>1154</ele>
        <time>2022-08-13T21:00:35Z</time>
      </trkpt>
      <trkpt lat="44.27594" lon="5.56584">
        <ele>1152</ele>
        <time>2022-08-13T21:00:35Z</time>
      </trkpt>
      <trkpt lat="44.27607" lon="5.56598">
        <ele>1150</ele>
        <time>2022-08-13T21:00:35Z</time>
      </trkpt>
      <trkpt lat="44.27621" lon="5.56634">
        <ele>1146</ele>
        <time>2022-08-13T21:00:35Z</time>
      </trkpt>
      <trkpt lat="44.2763" lon="5.56646">
        <ele>1144</ele>
        <time>2022-08-13T21:00:35Z</time>
      </trkpt>
      <trkpt lat="44.27665" lon="5.56652">
        <ele>1141</ele>
        <time>2022-08-13T21:00:35Z</time>
      </trkpt>
      <trkpt lat="44.27685" lon="5.56667">
        <ele>1138</ele>
        <time>2022-08-13T21:00:35Z</time>
      </trkpt>
      <trkpt lat="44.27696" lon="5.5667">
        <ele>1136</ele>
        <time>2022-08-13T21:00:35Z</time>
      </trkpt>
      <trkpt lat="44.27722" lon="5.56664">
        <ele>1134</ele>
        <time>2022-08-13T21:00:35Z</time>
      </trkpt>
      <trkpt lat="44.27738" lon="5.56674">
        <ele>1133</ele>
        <time>2022-08-13T21:00:35Z</time>
      </trkpt>
      <trkpt lat="44.27748" lon="5.56685">
        <ele>1131</ele>
        <time>2022-08-13T21:00:35Z</time>
      </trkpt>
      <trkpt lat="44.27758" lon="5.56692">
        <ele>1129</ele>
        <time>2022-08-13T21:00:35Z</time>
      </trkpt>
      <trkpt lat="44.27769" lon="5.56689">
        <ele>1128</ele>
        <time>2022-08-13T21:00:35Z</time>
      </trkpt>
      <trkpt lat="44.27774" lon="5.56697">
        <ele>1127</ele>
        <time>2022-08-13T21:00:35Z</time>
      </trkpt>
      <trkpt lat="44.27778" lon="5.56713">
        <ele>1125</ele>
        <time>2022-08-13T21:00:35Z</time>
      </trkpt>
      <trkpt lat="44.27784" lon="5.56725">
        <ele>1123</ele>
        <time>2022-08-13T21:00:35Z</time>
      </trkpt>
      <trkpt lat="44.27809" lon="5.56751">
        <ele>1121</ele>
        <time>2022-08-13T21:00:35Z</time>
      </trkpt>
      <trkpt lat="44.27841" lon="5.5681">
        <ele>1116</ele>
        <time>2022-08-13T21:00:35Z</time>
      </trkpt>
      <trkpt lat="44.27848" lon="5.56834">
        <ele>1113</ele>
        <time>2022-08-13T21:00:35Z</time>
      </trkpt>
      <trkpt lat="44.27851" lon="5.56877">
        <ele>1110</ele>
        <time>2022-08-13T21:00:35Z</time>
      </trkpt>
      <trkpt lat="44.27849" lon="5.56897">
        <ele>1107</ele>
        <time>2022-08-13T21:00:35Z</time>
      </trkpt>
      <trkpt lat="44.27845" lon="5.56909">
        <ele>1105</ele>
        <time>2022-08-13T21:00:35Z</time>
      </trkpt>
      <trkpt lat="44.27843" lon="5.56926">
        <ele>1103</ele>
        <time>2022-08-13T21:00:35Z</time>
      </trkpt>
      <trkpt lat="44.27845" lon="5.56944">
        <ele>1101</ele>
        <time>2022-08-13T21:00:35Z</time>
      </trkpt>
      <trkpt lat="44.27851" lon="5.56957">
        <ele>1099</ele>
        <time>2022-08-13T21:00:35Z</time>
      </trkpt>
      <trkpt lat="44.27858" lon="5.56965">
        <ele>1097</ele>
        <time>2022-08-13T21:00:35Z</time>
      </trkpt>
      <trkpt lat="44.27866" lon="5.56977">
        <ele>1096</ele>
        <time>2022-08-13T21:00:35Z</time>
      </trkpt>
      <trkpt lat="44.27866" lon="5.56977">
        <ele>1085</ele>
        <time>2022-08-13T21:00:35Z</time>
      </trkpt>
      <trkpt lat="44.279" lon="5.57056">
        <ele>1082</ele>
        <time>2022-08-13T21:00:35Z</time>
      </trkpt>
      <trkpt lat="44.27909" lon="5.57069">
        <ele>1080</ele>
        <time>2022-08-13T21:00:35Z</time>
      </trkpt>
      <trkpt lat="44.27925" lon="5.57078">
        <ele>1078</ele>
        <time>2022-08-13T21:00:35Z</time>
      </trkpt>
      <trkpt lat="44.27952" lon="5.57086">
        <ele>1076</ele>
        <time>2022-08-13T21:00:35Z</time>
      </trkpt>
      <trkpt lat="44.27971" lon="5.57084">
        <ele>1075</ele>
        <time>2022-08-13T21:00:35Z</time>
      </trkpt>
      <trkpt lat="44.27987" lon="5.5708">
        <ele>1073</ele>
        <time>2022-08-13T21:00:35Z</time>
      </trkpt>
      <trkpt lat="44.28" lon="5.57086">
        <ele>1072</ele>
        <time>2022-08-13T21:00:35Z</time>
      </trkpt>
      <trkpt lat="44.28009" lon="5.57094">
        <ele>1071</ele>
        <time>2022-08-13T21:00:35Z</time>
      </trkpt>
      <trkpt lat="44.28055" lon="5.57153">
        <ele>1068</ele>
        <time>2022-08-13T21:00:35Z</time>
      </trkpt>
      <trkpt lat="44.28146" lon="5.57245">
        <ele>1060</ele>
        <time>2022-08-13T21:00:35Z</time>
      </trkpt>
      <trkpt lat="44.28176" lon="5.57257">
        <ele>1054</ele>
        <time>2022-08-13T21:00:35Z</time>
      </trkpt>
      <trkpt lat="44.28184" lon="5.57255">
        <ele>1049</ele>
        <time>2022-08-13T21:00:35Z</time>
      </trkpt>
      <trkpt lat="44.28192" lon="5.57246">
        <ele>1035</ele>
        <time>2022-08-13T21:00:35Z</time>
      </trkpt>
      <trkpt lat="44.28211" lon="5.57219">
        <ele>1035</ele>
        <time>2022-08-13T21:00:35Z</time>
      </trkpt>
      <trkpt lat="44.28258" lon="5.57198">
        <ele>1035</ele>
        <time>2022-08-13T21:00:35Z</time>
      </trkpt>
      <trkpt lat="44.28269" lon="5.57198">
        <ele>1035</ele>
        <time>2022-08-13T21:00:35Z</time>
      </trkpt>
      <trkpt lat="44.28277" lon="5.57201">
        <ele>1035</ele>
        <time>2022-08-13T21:00:35Z</time>
      </trkpt>
      <trkpt lat="44.28299" lon="5.57221">
        <ele>1034</ele>
        <time>2022-08-13T21:00:35Z</time>
      </trkpt>
      <trkpt lat="44.28316" lon="5.57241">
        <ele>1032</ele>
        <time>2022-08-13T21:00:35Z</time>
      </trkpt>
      <trkpt lat="44.28364" lon="5.57263">
        <ele>1030</ele>
        <time>2022-08-13T21:00:35Z</time>
      </trkpt>
      <trkpt lat="44.28442" lon="5.57268">
        <ele>1027</ele>
        <time>2022-08-13T21:00:35Z</time>
      </trkpt>
      <trkpt lat="44.28442" lon="5.57268">
        <ele>1019</ele>
        <time>2022-08-13T21:00:35Z</time>
      </trkpt>
      <trkpt lat="44.28455" lon="5.5727">
        <ele>1019</ele>
        <time>2022-08-13T21:00:35Z</time>
      </trkpt>
      <trkpt lat="44.28464" lon="5.57267">
        <ele>1018</ele>
        <time>2022-08-13T21:00:35Z</time>
      </trkpt>
      <trkpt lat="44.28472" lon="5.57261">
        <ele>1018</ele>
        <time>2022-08-13T21:00:35Z</time>
      </trkpt>
      <trkpt lat="44.28481" lon="5.57248">
        <ele>1017</ele>
        <time>2022-08-13T21:00:35Z</time>
      </trkpt>
      <trkpt lat="44.2849" lon="5.57225">
        <ele>1017</ele>
        <time>2022-08-13T21:00:35Z</time>
      </trkpt>
      <trkpt lat="44.28503" lon="5.5723">
        <ele>1015</ele>
        <time>2022-08-13T21:00:35Z</time>
      </trkpt>
      <trkpt lat="44.28507" lon="5.57243">
        <ele>1014</ele>
        <time>2022-08-13T21:00:35Z</time>
      </trkpt>
      <trkpt lat="44.28507" lon="5.57256">
        <ele>1013</ele>
        <time>2022-08-13T21:00:35Z</time>
      </trkpt>
      <trkpt lat="44.28505" lon="5.57275">
        <ele>1012</ele>
        <time>2022-08-13T21:00:35Z</time>
      </trkpt>
      <trkpt lat="44.2849" lon="5.57293">
        <ele>1012</ele>
        <time>2022-08-13T21:00:35Z</time>
      </trkpt>
      <trkpt lat="44.28487" lon="5.57303">
        <ele>1011</ele>
        <time>2022-08-13T21:00:35Z</time>
      </trkpt>
      <trkpt lat="44.28493" lon="5.57311">
        <ele>1010</ele>
        <time>2022-08-13T21:00:35Z</time>
      </trkpt>
      <trkpt lat="44.28502" lon="5.57318">
        <ele>1009</ele>
        <time>2022-08-13T21:00:35Z</time>
      </trkpt>
      <trkpt lat="44.28529" lon="5.57351">
        <ele>1007</ele>
        <time>2022-08-13T21:00:35Z</time>
      </trkpt>
      <trkpt lat="44.28541" lon="5.57362">
        <ele>1005</ele>
        <time>2022-08-13T21:00:35Z</time>
      </trkpt>
      <trkpt lat="44.28545" lon="5.57372">
        <ele>1002</ele>
        <time>2022-08-13T21:00:35Z</time>
      </trkpt>
      <trkpt lat="44.28529" lon="5.57442">
        <ele>999</ele>
        <time>2022-08-13T21:00:35Z</time>
      </trkpt>
      <trkpt lat="44.28517" lon="5.57477">
        <ele>996</ele>
        <time>2022-08-13T21:00:35Z</time>
      </trkpt>
      <trkpt lat="44.28515" lon="5.57521">
        <ele>993</ele>
        <time>2022-08-13T21:00:35Z</time>
      </trkpt>
      <trkpt lat="44.28512" lon="5.57531">
        <ele>990</ele>
        <time>2022-08-13T21:00:35Z</time>
      </trkpt>
      <trkpt lat="44.28502" lon="5.57538">
        <ele>989</ele>
        <time>2022-08-13T21:00:35Z</time>
      </trkpt>
      <trkpt lat="44.28496" lon="5.5755">
        <ele>987</ele>
        <time>2022-08-13T21:00:35Z</time>
      </trkpt>
      <trkpt lat="44.28481" lon="5.57596">
        <ele>985</ele>
        <time>2022-08-13T21:00:35Z</time>
      </trkpt>
      <trkpt lat="44.28476" lon="5.57608">
        <ele>983</ele>
        <time>2022-08-13T21:00:35Z</time>
      </trkpt>
      <trkpt lat="44.2847" lon="5.57615">
        <ele>981</ele>
        <time>2022-08-13T21:00:35Z</time>
      </trkpt>
      <trkpt lat="44.2844" lon="5.57612">
        <ele>979</ele>
        <time>2022-08-13T21:00:35Z</time>
      </trkpt>
      <trkpt lat="44.2843" lon="5.57608">
        <ele>977</ele>
        <time>2022-08-13T21:00:35Z</time>
      </trkpt>
      <trkpt lat="44.28421" lon="5.57601">
        <ele>976</ele>
        <time>2022-08-13T21:00:35Z</time>
      </trkpt>
      <trkpt lat="44.28401" lon="5.57578">
        <ele>975</ele>
        <time>2022-08-13T21:00:35Z</time>
      </trkpt>
      <trkpt lat="44.28391" lon="5.57575">
        <ele>975</ele>
        <time>2022-08-13T21:00:35Z</time>
      </trkpt>
      <trkpt lat="44.28353" lon="5.57579">
        <ele>973</ele>
        <time>2022-08-13T21:00:35Z</time>
      </trkpt>
      <trkpt lat="44.28328" lon="5.57577">
        <ele>972</ele>
        <time>2022-08-13T21:00:35Z</time>
      </trkpt>
      <trkpt lat="44.28324" lon="5.57587">
        <ele>971</ele>
        <time>2022-08-13T21:00:35Z</time>
      </trkpt>
      <trkpt lat="44.28351" lon="5.57607">
        <ele>968</ele>
        <time>2022-08-13T21:00:35Z</time>
      </trkpt>
      <trkpt lat="44.28378" lon="5.57644">
        <ele>965</ele>
        <time>2022-08-13T21:00:35Z</time>
      </trkpt>
      <trkpt lat="44.2841" lon="5.57752">
        <ele>957</ele>
        <time>2022-08-13T21:00:35Z</time>
      </trkpt>
      <trkpt lat="44.2841" lon="5.57752">
        <ele>935</ele>
        <time>2022-08-13T21:00:35Z</time>
      </trkpt>
      <trkpt lat="44.28439" lon="5.57813">
        <ele>932</ele>
        <time>2022-08-13T21:00:35Z</time>
      </trkpt>
      <trkpt lat="44.28445" lon="5.5782">
        <ele>931</ele>
        <time>2022-08-13T21:00:35Z</time>
      </trkpt>
      <trkpt lat="44.28485" lon="5.57834">
        <ele>929</ele>
        <time>2022-08-13T21:00:35Z</time>
      </trkpt>
      <trkpt lat="44.2849" lon="5.57851">
        <ele>927</ele>
        <time>2022-08-13T21:00:35Z</time>
      </trkpt>
      <trkpt lat="44.28492" lon="5.57872">
        <ele>926</ele>
        <time>2022-08-13T21:00:35Z</time>
      </trkpt>
      <trkpt lat="44.28495" lon="5.57882">
        <ele>924</ele>
        <time>2022-08-13T21:00:35Z</time>
      </trkpt>
      <trkpt lat="44.28501" lon="5.57892">
        <ele>923</ele>
        <time>2022-08-13T21:00:35Z</time>
      </trkpt>
      <trkpt lat="44.28509" lon="5.57901">
        <ele>922</ele>
        <time>2022-08-13T21:00:35Z</time>
      </trkpt>
      <trkpt lat="44.28589" lon="5.57935">
        <ele>918</ele>
        <time>2022-08-13T21:00:35Z</time>
      </trkpt>
      <trkpt lat="44.286" lon="5.57962">
        <ele>914</ele>
        <time>2022-08-13T21:00:35Z</time>
      </trkpt>
      <trkpt lat="44.28608" lon="5.57968">
        <ele>911</ele>
        <time>2022-08-13T21:00:35Z</time>
      </trkpt>
      <trkpt lat="44.28614" lon="5.57978">
        <ele>909</ele>
        <time>2022-08-13T21:00:35Z</time>
      </trkpt>
      <trkpt lat="44.28625" lon="5.5798">
        <ele>907</ele>
        <time>2022-08-13T21:00:35Z</time>
      </trkpt>
      <trkpt lat="44.28642" lon="5.57976">
        <ele>905</ele>
        <time>2022-08-13T21:00:35Z</time>
      </trkpt>
      <trkpt lat="44.28663" lon="5.57957">
        <ele>902</ele>
        <time>2022-08-13T21:00:35Z</time>
      </trkpt>
      <trkpt lat="44.28682" lon="5.57948">
        <ele>900</ele>
        <time>2022-08-13T21:00:35Z</time>
      </trkpt>
      <trkpt lat="44.28702" lon="5.57949">
        <ele>898</ele>
        <time>2022-08-13T21:00:35Z</time>
      </trkpt>
      <trkpt lat="44.28757" lon="5.57988">
        <ele>896</ele>
        <time>2022-08-13T21:00:35Z</time>
      </trkpt>
      <trkpt lat="44.28791" lon="5.58031">
        <ele>893</ele>
        <time>2022-08-13T21:00:35Z</time>
      </trkpt>
      <trkpt lat="44.28813" lon="5.58041">
        <ele>891</ele>
        <time>2022-08-13T21:00:35Z</time>
      </trkpt>
      <trkpt lat="44.28862" lon="5.58057">
        <ele>889</ele>
        <time>2022-08-13T21:00:35Z</time>
      </trkpt>
      <trkpt lat="44.28939" lon="5.5811">
        <ele>884</ele>
        <time>2022-08-13T21:00:35Z</time>
      </trkpt>
      <trkpt lat="44.28945" lon="5.58119">
        <ele>880</ele>
        <time>2022-08-13T21:00:35Z</time>
      </trkpt>
      <trkpt lat="44.28959" lon="5.58159">
        <ele>878</ele>
        <time>2022-08-13T21:00:35Z</time>
      </trkpt>
      <trkpt lat="44.28972" lon="5.58222">
        <ele>875</ele>
        <time>2022-08-13T21:00:35Z</time>
      </trkpt>
      <trkpt lat="44.28983" lon="5.58249">
        <ele>873</ele>
        <time>2022-08-13T21:00:35Z</time>
      </trkpt>
      <trkpt lat="44.28983" lon="5.58249">
        <ele>865</ele>
        <time>2022-08-13T21:00:35Z</time>
      </trkpt>
      <trkpt lat="44.29" lon="5.58293">
        <ele>864</ele>
        <time>2022-08-13T21:00:35Z</time>
      </trkpt>
      <trkpt lat="44.29011" lon="5.58314">
        <ele>864</ele>
        <time>2022-08-13T21:00:35Z</time>
      </trkpt>
      <trkpt lat="44.29015" lon="5.58325">
        <ele>863</ele>
        <time>2022-08-13T21:00:35Z</time>
      </trkpt>
      <trkpt lat="44.29019" lon="5.58352">
        <ele>863</ele>
        <time>2022-08-13T21:00:35Z</time>
      </trkpt>
      <trkpt lat="44.29033" lon="5.58381">
        <ele>862</ele>
        <time>2022-08-13T21:00:35Z</time>
      </trkpt>
      <trkpt lat="44.29058" lon="5.5842">
        <ele>861</ele>
        <time>2022-08-13T21:00:35Z</time>
      </trkpt>
      <trkpt lat="44.29069" lon="5.58445">
        <ele>860</ele>
        <time>2022-08-13T21:00:35Z</time>
      </trkpt>
      <trkpt lat="44.29072" lon="5.58455">
        <ele>859</ele>
        <time>2022-08-13T21:00:35Z</time>
      </trkpt>
      <trkpt lat="44.29075" lon="5.58497">
        <ele>858</ele>
        <time>2022-08-13T21:00:35Z</time>
      </trkpt>
      <trkpt lat="44.29112" lon="5.58663">
        <ele>856</ele>
        <time>2022-08-13T21:00:35Z</time>
      </trkpt>
      <trkpt lat="44.29109" lon="5.5879">
        <ele>852</ele>
        <time>2022-08-13T21:00:35Z</time>
      </trkpt>
      <trkpt lat="44.29112" lon="5.58803">
        <ele>850</ele>
        <time>2022-08-13T21:00:35Z</time>
      </trkpt>
      <trkpt lat="44.29118" lon="5.58818">
        <ele>849</ele>
        <time>2022-08-13T21:00:35Z</time>
      </trkpt>
      <trkpt lat="44.29157" lon="5.58874">
        <ele>847</ele>
        <time>2022-08-13T21:00:35Z</time>
      </trkpt>
      <trkpt lat="44.29179" lon="5.58924">
        <ele>846</ele>
        <time>2022-08-13T21:00:35Z</time>
      </trkpt>
      <trkpt lat="44.29179" lon="5.58924">
        <ele>842</ele>
        <time>2022-08-13T21:00:35Z</time>
      </trkpt>
      <trkpt lat="44.29191" lon="5.58953">
        <ele>841</ele>
        <time>2022-08-13T21:00:35Z</time>
      </trkpt>
      <trkpt lat="44.29193" lon="5.58963">
        <ele>841</ele>
        <time>2022-08-13T21:00:35Z</time>
      </trkpt>
      <trkpt lat="44.29193" lon="5.58976">
        <ele>841</ele>
        <time>2022-08-13T21:00:35Z</time>
      </trkpt>
      <trkpt lat="44.29188" lon="5.58999">
        <ele>840</ele>
        <time>2022-08-13T21:00:35Z</time>
      </trkpt>
      <trkpt lat="44.29175" lon="5.59045">
        <ele>840</ele>
        <time>2022-08-13T21:00:35Z</time>
      </trkpt>
      <trkpt lat="44.29154" lon="5.59178">
        <ele>838</ele>
        <time>2022-08-13T21:00:35Z</time>
      </trkpt>
      <trkpt lat="44.29156" lon="5.59214">
        <ele>837</ele>
        <time>2022-08-13T21:00:35Z</time>
      </trkpt>
      <trkpt lat="44.2914" lon="5.59257">
        <ele>836</ele>
        <time>2022-08-13T21:00:35Z</time>
      </trkpt>
      <trkpt lat="44.2914" lon="5.59269">
        <ele>835</ele>
        <time>2022-08-13T21:00:35Z</time>
      </trkpt>
      <trkpt lat="44.29152" lon="5.59304">
        <ele>833</ele>
        <time>2022-08-13T21:00:35Z</time>
      </trkpt>
      <trkpt lat="44.29174" lon="5.59302">
        <ele>831</ele>
        <time>2022-08-13T21:00:35Z</time>
      </trkpt>
      <trkpt lat="44.29182" lon="5.59305">
        <ele>832</ele>
        <time>2022-08-13T21:00:35Z</time>
      </trkpt>
      <trkpt lat="44.29191" lon="5.59314">
        <ele>832</ele>
        <time>2022-08-13T21:00:35Z</time>
      </trkpt>
      <trkpt lat="44.29199" lon="5.59335">
        <ele>833</ele>
        <time>2022-08-13T21:00:35Z</time>
      </trkpt>
      <trkpt lat="44.29219" lon="5.5945">
        <ele>833</ele>
        <time>2022-08-13T21:00:35Z</time>
      </trkpt>
      <trkpt lat="44.2922" lon="5.59464">
        <ele>834</ele>
        <time>2022-08-13T21:00:35Z</time>
      </trkpt>
      <trkpt lat="44.2922" lon="5.59464">
        <ele>836</ele>
        <time>2022-08-13T21:00:35Z</time>
      </trkpt>
      <trkpt lat="44.29222" lon="5.59549">
        <ele>834</ele>
        <time>2022-08-13T21:00:35Z</time>
      </trkpt>
      <trkpt lat="44.29227" lon="5.59572">
        <ele>833</ele>
        <time>2022-08-13T21:00:35Z</time>
      </trkpt>
      <trkpt lat="44.2924" lon="5.59584">
        <ele>828</ele>
        <time>2022-08-13T21:00:35Z</time>
      </trkpt>
    </trkseg>
  </trk>
</gpx>